Time,TemperatureF,DewpointF,PressureIn,WindDirection,WindDirectionDegrees,WindSpeedMPH,WindSpeedGustMPH,Humidity,HourlyPrecipIn,Conditions,Clouds,dailyrainin,SoftwareType,DateUTC
2013-04-06 00:02:00,30.2,-99.9,30.14,NNW,331,2.7,3.1,-999,0.00,,,-99.99,perl,2013-04-06 04:02:00,
2013-04-06 00:03:00,30.2,-99.9,30.14,West,265,2.8,4.0,-999,0.00,,,-99.99,perl,2013-04-06 04:03:00,
2013-04-06 00:06:00,30.2,-99.9,30.14,NNW,344,0.0,0.0,-999,0.00,,,-99.99,perl,2013-04-06 04:06:00,
2013-04-06 00:11:00,30.0,-99.9,30.14,NNW,338,2.7,3.6,-999,0.00,,,-99.99,perl,2013-04-06 04:11:00,
2013-04-06 00:16:00,30.0,-99.9,30.14,North,350,0.0,0.0,-999,0.00,,,-99.99,perl,2013-04-06 04:16:00,
2013-04-06 00:22:00,29.8,-99.9,30.14,NW,312,0.0,0.0,-999,0.00,,,-99.99,perl,2013-04-06 04:22:00,
2013-04-06 00:28:00,29.7,-99.9,30.14,NNW,342,0.0,0.0,-999,0.00,,,-99.99,perl,2013-04-06 04:28:00,
2013-04-06 00:34:00,29.7,-99.9,30.14,NNW,334,0.0,0.0,-999,0.00,,,-99.99,perl,2013-04-06 04:34:00,
2013-04-06 00:42:00,29.5,-99.9,30.14,West,262,0.0,0.0,-999,0.00,,,-99.99,perl,2013-04-06 04:42:00,
2013-04-06 00:47:00,29.5,-99.9,30.14,NW,322,0.0,0.0,-999,0.00,,,-99.99,perl,2013-04-06 04:47:00,
2013-04-06 00:52:00,29.5,-99.9,30.14,NW,311,0.0,0.0,-999,0.00,,,-99.99,perl,2013-04-06 04:52:00,
2013-04-06 00:58:00,29.5,-99.9,30.14,NNW,344,0.0,0.0,-999,0.00,,,-99.99,perl,2013-04-06 04:58:00,
2013-04-06 01:03:00,29.5,-99.9,30.14,SE,138,0.0,3.6,-999,0.00,,,-99.99,perl,2013-04-06 05:03:00,
2013-04-06 01:08:00,29.5,-99.9,30.14,NNW,330,0.0,0.0,-999,0.00,,,-99.99,perl,2013-04-06 05:08:00,
2013-04-06 01:13:00,29.5,-99.9,30.14,NNW,338,0.0,0.0,-999,0.00,,,-99.99,perl,2013-04-06 05:13:00,
2013-04-06 01:20:00,29.3,-99.9,30.17,NNW,335,0.0,0.0,-999,0.00,,,-99.99,perl,2013-04-06 05:20:00,
2013-04-06 01:26:00,29.3,-99.9,30.17,NNW,330,0.0,0.0,-999,0.00,,,-99.99,perl,2013-04-06 05:26:00,
2013-04-06 01:32:00,29.3,-99.9,30.17,NNW,337,0.0,0.0,-999,0.00,,,-99.99,perl,2013-04-06 05:32:00,
2013-04-06 01:37:00,29.3,-99.9,30.17,NNW,337,0.0,0.0,-999,0.00,,,-99.99,perl,2013-04-06 05:37:00,
2013-04-06 01:43:00,29.1,-99.9,30.17,NNW,334,0.0,0.0,-999,0.00,,,-99.99,perl,2013-04-06 05:43:00,
2013-04-06 01:48:00,29.1,-99.9,30.17,NNW,334,0.0,0.0,-999,0.00,,,-99.99,perl,2013-04-06 05:48:00,
2013-04-06 01:53:00,28.9,-99.9,30.17,NNW,334,0.0,0.0,-999,0.00,,,-99.99,perl,2013-04-06 05:53:00,
2013-04-06 01:58:00,28.9,-99.9,30.17,NNW,334,0.0,0.0,-999,0.00,,,-99.99,perl,2013-04-06 05:58:00,
2013-04-06 02:04:00,28.9,-99.9,30.17,NNW,335,0.0,0.0,-999,0.00,,,-99.99,perl,2013-04-06 06:04:00,
2013-04-06 02:10:00,28.8,-99.9,30.17,NNW,334,0.0,0.0,-999,0.00,,,-99.99,perl,2013-04-06 06:10:00,
2013-04-06 02:16:00,28.8,-99.9,30.17,NW,323,0.0,0.0,-999,0.00,,,-99.99,perl,2013-04-06 06:16:00,
2013-04-06 02:21:00,28.6,-99.9,30.17,NW,324,0.0,0.0,-999,0.00,,,-99.99,perl,2013-04-06 06:21:00,
2013-04-06 02:26:00,28.6,-99.9,30.17,NW,324,0.0,0.0,-999,0.00,,,-99.99,perl,2013-04-06 06:26:00,
2013-04-06 02:31:00,28.4,-99.9,30.17,NNW,329,0.0,0.0,-999,0.00,,,-99.99,perl,2013-04-06 06:31:00,
2013-04-06 02:36:00,28.4,-99.9,30.17,WNW,296,0.0,0.0,-999,0.00,,,-99.99,perl,2013-04-06 06:36:00,
2013-04-06 02:41:00,28.4,-99.9,30.17,WNW,296,0.0,0.0,-999,0.00,,,-99.99,perl,2013-04-06 06:41:00,
2013-04-06 02:47:00,28.2,-99.9,30.20,WNW,289,0.0,0.0,-999,0.00,,,-99.99,perl,2013-04-06 06:47:00,
2013-04-06 02:52:00,28.4,-99.9,30.20,WNW,290,0.0,0.0,-999,0.00,,,-99.99,perl,2013-04-06 06:52:00,
2013-04-06 02:57:00,28.2,-99.9,30.20,WNW,289,0.0,0.0,-999,0.00,,,-99.99,perl,2013-04-06 06:57:00,
2013-04-06 03:02:00,28.2,-99.9,30.20,WNW,289,0.0,0.0,-999,0.00,,,-99.99,perl,2013-04-06 07:02:00,
2013-04-06 03:07:00,28.2,-99.9,30.20,WNW,288,0.0,0.0,-999,0.00,,,-99.99,perl,2013-04-06 07:07:00,
2013-04-06 03:13:00,27.9,-99.9,30.20,WNW,287,0.0,0.0,-999,0.00,,,-99.99,perl,2013-04-06 07:13:00,
2013-04-06 03:18:00,27.9,-99.9,30.20,WNW,287,0.0,0.0,-999,0.00,,,-99.99,perl,2013-04-06 07:18:00,
2013-04-06 03:23:00,27.5,-99.9,30.20,WNW,287,0.0,0.0,-999,0.00,,,-99.99,perl,2013-04-06 07:23:00,
2013-04-06 03:28:00,27.3,-99.9,30.20,WNW,287,0.0,0.0,-999,0.00,,,-99.99,perl,2013-04-06 07:28:00,
2013-04-06 03:34:00,27.1,-99.9,30.20,WNW,286,0.0,0.0,-999,0.00,,,-99.99,perl,2013-04-06 07:34:00,
2013-04-06 03:39:00,27.0,-99.9,30.20,WNW,286,0.0,0.0,-999,0.00,,,-99.99,perl,2013-04-06 07:39:00,
2013-04-06 03:45:00,26.8,-99.9,30.20,WNW,287,0.0,0.0,-999,0.00,,,-99.99,perl,2013-04-06 07:45:00,
2013-04-06 03:50:00,26.8,-99.9,30.20,WNW,288,0.0,0.0,-999,0.00,,,-99.99,perl,2013-04-06 07:50:00,
2013-04-06 03:55:00,26.8,-99.9,30.20,WNW,287,0.0,0.0,-999,0.00,,,-99.99,perl,2013-04-06 07:55:00,
2013-04-06 04:00:00,26.8,-99.9,30.20,WNW,288,0.0,0.0,-999,0.00,,,-99.99,perl,2013-04-06 08:00:00,
2013-04-06 04:05:00,26.8,-99.9,30.20,WNW,287,0.0,0.0,-999,0.00,,,-99.99,perl,2013-04-06 08:05:00,
2013-04-06 04:10:00,26.8,-99.9,30.20,WNW,287,0.0,0.0,-999,0.00,,,-99.99,perl,2013-04-06 08:10:00,
2013-04-06 04:16:00,26.8,-99.9,30.20,WNW,288,0.0,0.0,-999,0.00,,,-99.99,perl,2013-04-06 08:16:00,
2013-04-06 04:21:00,26.8,-99.9,30.20,WNW,287,0.0,0.0,-999,0.00,,,-99.99,perl,2013-04-06 08:21:00,
2013-04-06 04:26:00,26.6,-99.9,30.20,WNW,287,0.0,0.0,-999,0.00,,,-99.99,perl,2013-04-06 08:26:00,
2013-04-06 04:31:00,26.2,-99.9,30.23,WNW,287,0.0,0.0,-999,0.00,,,-99.99,perl,2013-04-06 08:31:00,
2013-04-06 04:36:00,26.1,-99.9,30.23,WNW,287,0.0,0.0,-999,0.00,,,-99.99,perl,2013-04-06 08:36:00,
2013-04-06 04:41:00,25.9,-99.9,30.23,WNW,287,0.0,0.0,-999,0.00,,,-99.99,perl,2013-04-06 08:41:00,
2013-04-06 04:46:00,25.5,-99.9,30.23,WNW,286,0.0,0.0,-999,0.00,,,-99.99,perl,2013-04-06 08:46:00,
2013-04-06 04:51:00,25.3,-99.9,30.23,WNW,287,0.0,0.0,-999,0.00,,,-99.99,perl,2013-04-06 08:51:00,
2013-04-06 04:56:00,25.0,-99.9,30.23,WNW,288,0.0,0.0,-999,0.00,,,-99.99,perl,2013-04-06 08:56:00,
2013-04-06 05:02:00,24.8,-99.9,30.23,WNW,287,0.0,0.0,-999,0.00,,,-99.99,perl,2013-04-06 09:02:00,
2013-04-06 05:07:00,24.4,-99.9,30.23,WNW,286,0.0,0.0,-999,0.00,,,-99.99,perl,2013-04-06 09:07:00,
2013-04-06 05:12:00,24.3,-99.9,30.23,WNW,287,0.0,0.0,-999,0.00,,,-99.99,perl,2013-04-06 09:12:00,
2013-04-06 05:18:00,23.9,-99.9,30.23,WNW,287,0.0,0.0,-999,0.00,,,-99.99,perl,2013-04-06 09:18:00,
2013-04-06 05:23:00,23.9,-99.9,30.23,WNW,287,0.0,0.0,-999,0.00,,,-99.99,perl,2013-04-06 09:23:00,
2013-04-06 05:28:00,24.1,-99.9,30.23,WNW,287,0.0,0.0,-999,0.00,,,-99.99,perl,2013-04-06 09:28:00,
2013-04-06 05:33:00,24.3,-99.9,30.23,WNW,287,0.0,0.0,-999,0.00,,,-99.99,perl,2013-04-06 09:33:00,
2013-04-06 05:38:00,24.3,-99.9,30.23,WNW,286,0.0,0.0,-999,0.00,,,-99.99,perl,2013-04-06 09:38:00,
2013-04-06 05:43:00,24.4,-99.9,30.23,WNW,287,0.0,0.0,-999,0.00,,,-99.99,perl,2013-04-06 09:43:00,
2013-04-06 05:48:00,24.4,-99.9,30.23,WNW,287,0.0,0.0,-999,0.00,,,-99.99,perl,2013-04-06 09:48:00,
2013-04-06 05:53:00,24.4,-99.9,30.23,WNW,288,0.0,0.0,-999,0.00,,,-99.99,perl,2013-04-06 09:53:00,
2013-04-06 05:58:00,24.3,-99.9,30.23,WNW,287,0.0,0.0,-999,0.00,,,-99.99,perl,2013-04-06 09:58:00,
2013-04-06 06:03:00,23.9,-99.9,30.23,WNW,288,0.0,0.0,-999,0.00,,,-99.99,perl,2013-04-06 10:03:00,
2013-04-06 06:08:00,23.5,-99.9,30.23,WNW,287,0.0,0.0,-999,0.00,,,-99.99,perl,2013-04-06 10:08:00,
2013-04-06 06:13:00,23.5,-99.9,30.23,WNW,287,0.0,0.0,-999,0.00,,,-99.99,perl,2013-04-06 10:13:00,
2013-04-06 06:18:00,23.5,-99.9,30.26,WNW,287,0.0,0.0,-999,0.00,,,-99.99,perl,2013-04-06 10:18:00,
2013-04-06 06:23:00,23.5,-99.9,30.26,WNW,288,0.0,0.0,-999,0.00,,,-99.99,perl,2013-04-06 10:23:00,
2013-04-06 06:28:00,23.7,-99.9,30.26,WNW,287,0.0,0.0,-999,0.00,,,-99.99,perl,2013-04-06 10:28:00,
2013-04-06 06:33:00,23.5,-99.9,30.26,WNW,287,0.0,0.0,-999,0.00,,,-99.99,perl,2013-04-06 10:33:00,
2013-04-06 06:38:00,23.5,-99.9,30.26,WNW,287,0.0,0.0,-999,0.00,,,-99.99,perl,2013-04-06 10:38:00,
2013-04-06 06:44:00,23.4,-99.9,30.26,WNW,287,0.0,0.0,-999,0.00,,,-99.99,perl,2013-04-06 10:44:00,
2013-04-06 06:50:00,23.5,-99.9,30.26,WNW,287,0.0,0.0,-999,0.00,,,-99.99,perl,2013-04-06 10:50:00,
2013-04-06 06:56:00,23.7,-99.9,30.26,WNW,287,0.0,0.0,-999,0.00,,,-99.99,perl,2013-04-06 10:56:00,
2013-04-06 07:01:00,23.5,-99.9,30.26,WNW,287,0.0,0.0,-999,0.00,,,-99.99,perl,2013-04-06 11:01:00,
2013-04-06 07:06:00,23.7,-99.9,30.26,WNW,287,0.0,0.0,-999,0.00,,,-99.99,perl,2013-04-06 11:06:00,
2013-04-06 07:11:00,24.1,-99.9,30.26,WNW,287,0.0,0.0,-999,0.00,,,-99.99,perl,2013-04-06 11:11:00,
2013-04-06 07:17:00,24.8,-99.9,30.26,WNW,286,0.0,0.0,-999,0.00,,,-99.99,perl,2013-04-06 11:17:00,
2013-04-06 07:22:00,25.2,-99.9,30.26,WNW,287,0.0,0.0,-999,0.00,,,-99.99,perl,2013-04-06 11:22:00,
2013-04-06 07:27:00,25.2,-99.9,30.26,WNW,287,0.0,0.0,-999,0.00,,,-99.99,perl,2013-04-06 11:27:00,
2013-04-06 07:34:00,25.5,-99.9,30.26,WNW,287,0.0,0.0,-999,0.00,,,-99.99,perl,2013-04-06 11:34:00,
2013-04-06 07:37:00,25.5,-99.9,30.26,WNW,287,0.0,0.0,-999,0.00,,,-99.99,perl,2013-04-06 11:37:00,
2013-04-06 07:42:00,25.9,-99.9,30.26,WNW,287,0.0,0.0,-999,0.00,,,-99.99,perl,2013-04-06 11:42:00,
2013-04-06 07:48:00,26.2,-99.9,30.29,WNW,287,0.0,0.0,-999,0.00,,,-99.99,perl,2013-04-06 11:48:00,
2013-04-06 07:54:00,26.8,-99.9,30.29,West,269,0.0,0.0,-999,0.00,,,-99.99,perl,2013-04-06 11:54:00,
2013-04-06 08:00:00,27.3,-99.9,30.29,West,273,0.0,0.0,-999,0.00,,,-99.99,perl,2013-04-06 12:00:00,
2013-04-06 08:07:00,27.9,-99.9,30.29,West,273,0.0,0.0,-999,0.00,,,-99.99,perl,2013-04-06 12:07:00,
2013-04-06 08:12:00,28.4,-99.9,30.29,West,273,0.0,0.0,-999,0.00,,,-99.99,perl,2013-04-06 12:12:00,
2013-04-06 08:18:00,28.9,-99.9,30.29,West,272,0.0,0.0,-999,0.00,,,-99.99,perl,2013-04-06 12:18:00,
2013-04-06 08:23:00,29.3,-99.9,30.29,WSW,256,0.0,0.0,-999,0.00,,,-99.99,perl,2013-04-06 12:23:00,
2013-04-06 08:28:00,29.7,-99.9,30.29,WSW,255,0.0,0.0,-999,0.00,,,-99.99,perl,2013-04-06 12:28:00,
2013-04-06 08:33:00,30.4,-99.9,30.29,WSW,256,0.0,0.0,-999,0.00,,,-99.99,perl,2013-04-06 12:33:00,
2013-04-06 08:39:00,31.1,-99.9,30.29,WSW,253,0.0,0.0,-999,0.00,,,-99.99,perl,2013-04-06 12:39:00,
2013-04-06 08:44:00,31.8,-99.9,30.29,WSW,251,0.0,0.0,-999,0.00,,,-99.99,perl,2013-04-06 12:44:00,
2013-04-06 08:50:00,32.7,-99.9,30.29,WSW,252,0.0,0.0,-999,0.00,,,-99.99,perl,2013-04-06 12:50:00,
2013-04-06 08:56:00,33.3,-99.9,30.29,SE,136,0.0,0.0,-999,0.00,,,-99.99,perl,2013-04-06 12:56:00,
2013-04-06 09:01:00,33.8,-99.9,30.29,NNW,342,0.0,0.0,-999,0.00,,,-99.99,perl,2013-04-06 13:01:00,
2013-04-06 09:07:00,34.2,-99.9,30.29,NE,53,0.0,0.0,-999,0.00,,,-99.99,perl,2013-04-06 13:07:00,
2013-04-06 09:13:00,34.5,-99.9,30.29,East,100,0.0,0.0,-999,0.00,,,-99.99,perl,2013-04-06 13:13:00,
2013-04-06 09:19:00,34.9,-99.9,30.29,NE,48,2.2,5.4,-999,0.00,,,-99.99,perl,2013-04-06 13:19:00,
2013-04-06 09:25:00,34.3,-99.9,30.29,East,95,0.0,0.0,-999,0.00,,,-99.99,perl,2013-04-06 13:25:00,
2013-04-06 09:30:00,34.5,-99.9,30.29,NNE,25,3.1,4.9,-999,0.00,,,-99.99,perl,2013-04-06 13:30:00,
2013-04-06 09:35:00,34.9,-99.9,30.29,NNW,341,3.1,5.8,-999,0.00,,,-99.99,perl,2013-04-06 13:35:00,
2013-04-06 09:41:00,34.9,-99.9,30.29,NNE,16,0.0,0.0,-999,0.00,,,-99.99,perl,2013-04-06 13:41:00,
2013-04-06 09:46:00,35.2,-99.9,30.29,ESE,109,0.0,3.1,-999,0.00,,,-99.99,perl,2013-04-06 13:46:00,
2013-04-06 09:51:00,35.4,-99.9,30.29,East,98,2.8,5.4,-999,0.00,,,-99.99,perl,2013-04-06 13:51:00,
2013-04-06 09:57:00,36.0,-99.9,30.29,East,101,3.1,3.6,-999,0.00,,,-99.99,perl,2013-04-06 13:57:00,
2013-04-06 10:03:00,35.6,-99.9,30.29,ESE,120,0.0,0.0,-999,0.00,,,-99.99,perl,2013-04-06 14:03:00,
2013-04-06 10:08:00,36.1,-99.9,30.29,East,94,0.0,0.0,-999,0.00,,,-99.99,perl,2013-04-06 14:08:00,
2013-04-06 10:13:00,36.1,-99.9,30.29,East,98,4.1,5.4,-999,0.00,,,-99.99,perl,2013-04-06 14:13:00,
2013-04-06 10:18:00,35.6,-99.9,30.29,East,94,4.0,6.3,-999,0.00,,,-99.99,perl,2013-04-06 14:18:00,
2013-04-06 10:24:00,35.6,-99.9,30.29,South,182,0.6,4.0,-999,0.00,,,-99.99,perl,2013-04-06 14:24:00,
2013-04-06 10:29:00,36.1,-99.9,30.29,SW,228,0.0,0.0,-999,0.00,,,-99.99,perl,2013-04-06 14:29:00,
2013-04-06 10:35:00,37.0,-99.9,30.29,SE,124,0.0,3.6,-999,0.00,,,-99.99,perl,2013-04-06 14:35:00,
2013-04-06 10:40:00,37.0,-99.9,30.29,WSW,238,0.0,0.0,-999,0.00,,,-99.99,perl,2013-04-06 14:40:00,
2013-04-06 10:45:00,36.9,-99.9,30.29,WSW,251,0.0,0.0,-999,0.00,,,-99.99,perl,2013-04-06 14:45:00,
2013-04-06 10:51:00,36.9,-99.9,30.29,ESE,105,3.8,6.7,-999,0.00,,,-99.99,perl,2013-04-06 14:51:00,
2013-04-06 10:56:00,36.7,-99.9,30.29,ENE,76,3.1,3.1,-999,0.00,,,-99.99,perl,2013-04-06 14:56:00,
2013-04-06 11:01:00,37.0,-99.9,30.29,SE,134,0.8,5.4,-999,0.00,,,-99.99,perl,2013-04-06 15:01:00,
2013-04-06 11:06:00,37.2,-99.9,30.29,SE,135,3.0,3.6,-999,0.00,,,-99.99,perl,2013-04-06 15:06:00,
2013-04-06 11:11:00,37.0,-99.9,30.29,ESE,102,2.2,4.0,-999,0.00,,,-99.99,perl,2013-04-06 15:11:00,
2013-04-06 11:16:00,37.4,-99.9,30.29,ESE,109,3.1,4.0,-999,0.00,,,-99.99,perl,2013-04-06 15:16:00,
2013-04-06 11:21:00,37.4,-99.9,30.29,SE,130,4.0,4.0,-999,0.00,,,-99.99,perl,2013-04-06 15:21:00,
2013-04-06 11:26:00,37.9,-99.9,30.29,ESE,102,3.4,5.4,-999,0.00,,,-99.99,perl,2013-04-06 15:26:00,
2013-04-06 11:31:00,38.1,-99.9,30.29,ESE,112,3.1,3.1,-999,0.00,,,-99.99,perl,2013-04-06 15:31:00,
2013-04-06 11:36:00,37.9,-99.9,30.29,East,101,2.6,3.1,-999,0.00,,,-99.99,perl,2013-04-06 15:36:00,
2013-04-06 11:41:00,37.9,-99.9,30.29,SSE,163,4.7,6.3,-999,0.00,,,-99.99,perl,2013-04-06 15:41:00,
2013-04-06 11:46:00,38.3,-99.9,30.29,SSW,196,3.6,4.0,-999,0.00,,,-99.99,perl,2013-04-06 15:46:00,
2013-04-06 11:51:00,38.8,-99.9,30.29,East,84,0.0,0.0,-999,0.00,,,-99.99,perl,2013-04-06 15:51:00,
2013-04-06 11:56:00,38.8,-99.9,30.29,South,189,2.7,4.0,-999,0.00,,,-99.99,perl,2013-04-06 15:56:00,
2013-04-06 12:01:00,38.5,-99.9,30.29,WSW,251,2.6,5.4,-999,0.00,,,-99.99,perl,2013-04-06 16:01:00,
2013-04-06 12:06:00,38.8,-99.9,30.29,SE,124,0.0,5.4,-999,0.00,,,-99.99,perl,2013-04-06 16:06:00,
2013-04-06 12:11:00,38.7,-99.9,30.29,South,176,3.9,4.9,-999,0.00,,,-99.99,perl,2013-04-06 16:11:00,
2013-04-06 12:17:00,39.4,-99.9,30.29,SSE,150,2.7,4.9,-999,0.00,,,-99.99,perl,2013-04-06 16:17:00,
2013-04-06 12:25:00,39.4,-99.9,30.29,WSW,238,1.1,6.7,-999,0.00,,,-99.99,perl,2013-04-06 16:25:00,
2013-04-06 12:30:00,39.4,-99.9,30.29,ESE,103,3.1,4.9,-999,0.00,,,-99.99,perl,2013-04-06 16:30:00,
2013-04-06 12:35:00,39.4,-99.9,30.29,ENE,76,0.0,3.1,-999,0.00,,,-99.99,perl,2013-04-06 16:35:00,
2013-04-06 12:40:00,39.4,-99.9,30.29,ENE,74,2.7,2.7,-999,0.00,,,-99.99,perl,2013-04-06 16:40:00,
2013-04-06 12:47:00,40.6,-99.9,30.26,SW,231,0.0,0.0,-999,0.00,,,-99.99,perl,2013-04-06 16:47:00,
2013-04-06 12:52:00,41.0,-99.9,30.26,WSW,240,4.5,5.4,-999,0.00,,,-99.99,perl,2013-04-06 16:52:00,
2013-04-06 12:57:00,41.0,-99.9,30.26,SE,131,4.0,4.9,-999,0.00,,,-99.99,perl,2013-04-06 16:57:00,
2013-04-06 13:02:00,40.5,-99.9,30.26,East,97,3.1,4.9,-999,0.00,,,-99.99,perl,2013-04-06 17:02:00,
2013-04-06 13:08:00,40.5,-99.9,30.26,SSW,206,2.3,3.6,-999,0.00,,,-99.99,perl,2013-04-06 17:08:00,
2013-04-06 13:13:00,41.2,-99.9,30.26,West,267,0.0,3.6,-999,0.00,,,-99.99,perl,2013-04-06 17:13:00,
2013-04-06 13:18:00,41.7,-99.9,30.26,South,185,0.0,0.0,-999,0.00,,,-99.99,perl,2013-04-06 17:18:00,
2013-04-06 13:23:00,41.9,-99.9,30.26,WSW,252,3.6,8.1,-999,0.00,,,-99.99,perl,2013-04-06 17:23:00,
2013-04-06 13:28:00,41.5,-99.9,30.26,SSW,206,3.8,4.0,-999,0.00,,,-99.99,perl,2013-04-06 17:28:00,
2013-04-06 13:34:00,41.5,-99.9,30.26,East,98,2.2,8.1,-999,0.00,,,-99.99,perl,2013-04-06 17:34:00,
2013-04-06 13:40:00,41.5,-99.9,30.26,ESE,116,0.0,0.0,-999,0.00,,,-99.99,perl,2013-04-06 17:40:00,
2013-04-06 13:46:00,42.8,-99.9,30.26,SW,215,4.3,5.8,-999,0.00,,,-99.99,perl,2013-04-06 17:46:00,
2013-04-06 13:51:00,43.5,-99.9,30.26,South,179,0.0,4.0,-999,0.00,,,-99.99,perl,2013-04-06 17:51:00,
2013-04-06 13:56:00,43.9,-99.9,30.26,East,83,0.6,4.0,-999,0.00,,,-99.99,perl,2013-04-06 17:56:00,
2013-04-06 14:01:00,43.3,-99.9,30.26,SSW,192,5.1,5.4,-999,0.00,,,-99.99,perl,2013-04-06 18:01:00,
2013-04-06 14:06:00,43.9,-99.9,30.26,SW,226,3.6,3.6,-999,0.00,,,-99.99,perl,2013-04-06 18:06:00,
2013-04-06 14:11:00,44.6,-99.9,30.26,West,265,2.2,3.1,-999,0.00,,,-99.99,perl,2013-04-06 18:11:00,
2013-04-06 14:16:00,43.9,-99.9,30.26,SE,139,4.9,6.7,-999,0.00,,,-99.99,perl,2013-04-06 18:16:00,
2013-04-06 14:23:00,45.0,-99.9,30.26,SE,135,0.0,4.0,-999,0.00,,,-99.99,perl,2013-04-06 18:23:00,
2013-04-06 14:28:00,45.0,-99.9,30.26,WSW,244,4.0,5.4,-999,0.00,,,-99.99,perl,2013-04-06 18:28:00,
2013-04-06 14:33:00,44.8,-99.9,30.23,SW,225,4.5,7.2,-999,0.00,,,-99.99,perl,2013-04-06 18:33:00,
2013-04-06 14:38:00,44.2,-99.9,30.23,SE,136,5.3,5.8,-999,0.00,,,-99.99,perl,2013-04-06 18:38:00,
2013-04-06 14:43:00,43.5,-99.9,30.23,SW,223,4.3,4.3,-999,0.00,,,-99.99,perl,2013-04-06 18:43:00,
2013-04-06 14:48:00,43.5,-99.9,30.23,East,84,4.0,4.0,-999,0.00,,,-99.99,perl,2013-04-06 18:48:00,
2013-04-06 14:53:00,44.8,-99.9,30.23,SSW,196,3.9,5.8,-999,0.00,,,-99.99,perl,2013-04-06 18:53:00,
2013-04-06 14:58:00,45.0,-99.9,30.23,SSW,194,4.5,5.8,-999,0.00,,,-99.99,perl,2013-04-06 18:58:00,
2013-04-06 15:04:00,45.1,-99.9,30.23,East,101,3.2,5.4,-999,0.00,,,-99.99,perl,2013-04-06 19:04:00,
2013-04-06 15:09:00,45.1,-99.9,30.23,SSE,166,2.2,2.2,-999,0.00,,,-99.99,perl,2013-04-06 19:09:00,
2013-04-06 15:14:00,45.0,-99.9,30.20,SSE,168,4.0,8.1,-999,0.00,,,-99.99,perl,2013-04-06 19:14:00,
2013-04-06 15:20:00,45.9,-99.9,30.20,South,181,2.4,5.8,-999,0.00,,,-99.99,perl,2013-04-06 19:20:00,
2013-04-06 15:25:00,45.9,-99.9,30.20,SW,217,3.0,3.6,-999,0.00,,,-99.99,perl,2013-04-06 19:25:00,
2013-04-06 15:31:00,45.7,-99.9,30.20,ESE,123,4.7,6.3,-999,0.00,,,-99.99,perl,2013-04-06 19:31:00,
2013-04-06 15:36:00,45.7,-99.9,30.20,ENE,61,0.0,0.0,-999,0.00,,,-99.99,perl,2013-04-06 19:36:00,
2013-04-06 15:41:00,46.2,-99.9,30.20,ENE,77,4.2,7.6,-999,0.00,,,-99.99,perl,2013-04-06 19:41:00,
2013-04-06 15:47:00,45.5,-99.9,30.20,East,94,4.5,7.2,-999,0.00,,,-99.99,perl,2013-04-06 19:47:00,
2013-04-06 15:52:00,45.9,-99.9,30.20,SE,127,3.6,4.9,-999,0.00,,,-99.99,perl,2013-04-06 19:52:00,
2013-04-06 15:57:00,46.4,-99.9,30.20,SSE,151,4.5,4.5,-999,0.00,,,-99.99,perl,2013-04-06 19:57:00,
2013-04-06 16:02:00,46.6,-99.9,30.17,South,179,2.4,5.4,-999,0.00,,,-99.99,perl,2013-04-06 20:02:00,
2013-04-06 16:07:00,46.6,-99.9,30.17,ESE,103,3.1,7.2,-999,0.00,,,-99.99,perl,2013-04-06 20:07:00,
2013-04-06 16:12:00,46.8,-99.9,30.17,East,101,0.0,5.8,-999,0.00,,,-99.99,perl,2013-04-06 20:12:00,
2013-04-06 16:18:00,46.4,-99.9,30.17,SE,140,3.1,6.3,-999,0.00,,,-99.99,perl,2013-04-06 20:18:00,
2013-04-06 16:23:00,46.4,-99.9,30.17,ESE,106,0.4,3.6,-999,0.00,,,-99.99,perl,2013-04-06 20:23:00,
2013-04-06 16:28:00,46.8,-99.9,30.17,SE,138,2.0,2.7,-999,0.00,,,-99.99,perl,2013-04-06 20:28:00,
2013-04-06 16:33:00,46.8,-99.9,30.17,ENE,66,4.5,5.4,-999,0.00,,,-99.99,perl,2013-04-06 20:33:00,
2013-04-06 16:38:00,46.4,-99.9,30.17,ENE,60,3.0,3.0,-999,0.00,,,-99.99,perl,2013-04-06 20:38:00,
2013-04-06 16:43:00,46.0,-99.9,30.17,South,179,3.6,3.6,-999,0.00,,,-99.99,perl,2013-04-06 20:43:00,
2013-04-06 16:48:00,45.9,-99.9,30.17,NNE,23,4.0,4.9,-999,0.00,,,-99.99,perl,2013-04-06 20:48:00,
2013-04-06 16:53:00,45.3,-99.9,30.17,ESE,106,2.7,7.6,-999,0.00,,,-99.99,perl,2013-04-06 20:53:00,
2013-04-06 16:58:00,45.0,-99.9,30.17,NE,43,4.1,6.3,-999,0.00,,,-99.99,perl,2013-04-06 20:58:00,
2013-04-06 17:03:00,44.2,-99.9,30.17,NNE,31,4.1,6.3,-999,0.00,,,-99.99,perl,2013-04-06 21:03:00,
2013-04-06 17:08:00,43.7,-99.9,30.17,North,2,3.6,3.6,-999,0.00,,,-99.99,perl,2013-04-06 21:08:00,
2013-04-06 17:13:00,43.9,-99.9,30.17,NNE,15,2.0,0.0,-999,0.00,,,-99.99,perl,2013-04-06 21:13:00,
2013-04-06 17:18:00,43.7,-99.9,30.14,ESE,102,3.1,4.0,-999,0.00,,,-99.99,perl,2013-04-06 21:18:00,
2013-04-06 17:23:00,43.5,-99.9,30.14,NNE,19,3.5,4.9,-999,0.00,,,-99.99,perl,2013-04-06 21:23:00,
2013-04-06 17:28:00,43.2,-99.9,30.14,West,263,2.7,4.0,-999,0.00,,,-99.99,perl,2013-04-06 21:28:00,
2013-04-06 17:33:00,42.8,-99.9,30.14,NNE,30,2.6,3.6,-999,0.00,,,-99.99,perl,2013-04-06 21:33:00,
2013-04-06 17:38:00,42.8,-99.9,30.14,SE,128,0.0,0.0,-999,0.00,,,-99.99,perl,2013-04-06 21:38:00,
2013-04-06 17:43:00,42.6,-99.9,30.14,NNE,12,2.7,3.6,-999,0.00,,,-99.99,perl,2013-04-06 21:43:00,
2013-04-06 17:48:00,42.4,-99.9,30.14,NNW,342,2.6,2.7,-999,0.00,,,-99.99,perl,2013-04-06 21:48:00,
2013-04-06 17:54:00,42.1,-99.9,30.14,NNE,17,3.6,5.4,-999,0.00,,,-99.99,perl,2013-04-06 21:54:00,
2013-04-06 18:00:00,41.7,-99.9,30.14,WSW,238,2.7,3.6,-999,0.00,,,-99.99,perl,2013-04-06 22:00:00,
2013-04-06 18:05:00,41.2,-99.9,30.14,North,350,0.5,4.0,-999,0.00,,,-99.99,perl,2013-04-06 22:05:00,
2013-04-06 18:11:00,41.0,-99.9,30.14,ESE,118,3.6,4.0,-999,0.00,,,-99.99,perl,2013-04-06 22:11:00,
2013-04-06 18:16:00,41.0,-99.9,30.14,North,5,0.6,4.0,-999,0.00,,,-99.99,perl,2013-04-06 22:16:00,
2013-04-06 18:21:00,41.2,-99.9,30.14,NNE,23,4.0,4.9,-999,0.00,,,-99.99,perl,2013-04-06 22:21:00,
2013-04-06 18:27:00,41.0,-99.9,30.14,NE,52,0.7,5.4,-999,0.00,,,-99.99,perl,2013-04-06 22:27:00,
2013-04-06 18:32:00,41.2,-99.9,30.14,NNE,31,3.6,5.4,-999,0.00,,,-99.99,perl,2013-04-06 22:32:00,
2013-04-06 18:37:00,41.2,-99.9,30.14,NE,34,3.4,3.6,-999,0.00,,,-99.99,perl,2013-04-06 22:37:00,
2013-04-06 18:43:00,41.4,-99.9,30.14,NE,51,2.3,3.1,-999,0.00,,,-99.99,perl,2013-04-06 22:43:00,
2013-04-06 18:48:00,41.5,-99.9,30.14,NNE,29,3.6,4.0,-999,0.00,,,-99.99,perl,2013-04-06 22:48:00,
2013-04-06 18:53:00,41.4,-99.9,30.14,NE,51,3.1,5.4,-999,0.00,,,-99.99,perl,2013-04-06 22:53:00,
2013-04-06 18:58:00,41.2,-99.9,30.14,NNE,17,3.5,4.9,-999,0.00,,,-99.99,perl,2013-04-06 22:58:00,
2013-04-06 19:04:00,41.2,-99.9,30.14,NNE,28,3.4,3.4,-999,0.00,,,-99.99,perl,2013-04-06 23:04:00,
2013-04-06 19:09:00,41.2,-99.9,30.14,NE,40,2.6,3.1,-999,0.00,,,-99.99,perl,2013-04-06 23:09:00,
2013-04-06 19:15:00,41.0,-99.9,30.11,NE,42,3.5,4.9,-999,0.00,,,-99.99,perl,2013-04-06 23:15:00,
2013-04-06 19:20:00,40.8,-99.9,30.11,NNE,29,2.7,4.0,-999,0.00,,,-99.99,perl,2013-04-06 23:20:00,
2013-04-06 19:25:00,40.8,-99.9,30.11,NE,39,3.7,4.9,-999,0.00,,,-99.99,perl,2013-04-06 23:25:00,
2013-04-06 19:30:00,40.8,-99.9,30.11,NE,40,3.0,3.1,-999,0.00,,,-99.99,perl,2013-04-06 23:30:00,
2013-04-06 19:36:00,40.6,-99.9,30.11,NNE,22,2.7,3.6,-999,0.00,,,-99.99,perl,2013-04-06 23:36:00,
2013-04-06 19:41:00,40.6,-99.9,30.11,NE,39,2.7,4.0,-999,0.00,,,-99.99,perl,2013-04-06 23:41:00,
2013-04-06 19:46:00,40.5,-99.9,30.11,NNE,23,2.7,3.1,-999,0.00,,,-99.99,perl,2013-04-06 23:46:00,
2013-04-06 19:51:00,40.3,-99.9,30.11,ENE,62,0.0,0.0,-999,0.00,,,-99.99,perl,2013-04-06 23:51:00,
2013-04-06 19:56:00,40.1,-99.9,30.11,NE,45,3.1,3.6,-999,0.00,,,-99.99,perl,2013-04-06 23:56:00,
2013-04-06 20:01:00,39.9,-99.9,30.11,NE,48,0.0,0.0,-999,0.00,,,-99.99,perl,2013-04-07 00:01:00,
2013-04-06 20:06:00,39.9,-99.9,30.11,NE,47,2.7,3.1,-999,0.00,,,-99.99,perl,2013-04-07 00:06:00,
2013-04-06 20:11:00,39.7,-99.9,30.11,ENE,62,3.5,4.9,-999,0.00,,,-99.99,perl,2013-04-07 00:11:00,
2013-04-06 20:18:00,39.4,-99.9,30.11,NE,50,2.1,2.2,-999,0.00,,,-99.99,perl,2013-04-07 00:18:00,
2013-04-06 20:23:00,39.4,-99.9,30.11,NNE,14,0.0,0.0,-999,0.00,,,-99.99,perl,2013-04-07 00:23:00,
2013-04-06 20:28:00,39.2,-99.9,30.11,NNE,30,0.0,0.0,-999,0.00,,,-99.99,perl,2013-04-07 00:28:00,
2013-04-06 20:33:00,39.4,-99.9,30.11,ENE,63,0.0,0.0,-999,0.00,,,-99.99,perl,2013-04-07 00:33:00,
2013-04-06 20:38:00,39.4,-99.9,30.11,ENE,59,0.0,0.0,-999,0.00,,,-99.99,perl,2013-04-07 00:38:00,
2013-04-06 20:43:00,39.2,-99.9,30.11,East,94,0.0,0.0,-999,0.00,,,-99.99,perl,2013-04-07 00:43:00,
2013-04-06 20:49:00,39.2,-99.9,30.08,East,89,0.0,0.0,-999,0.00,,,-99.99,perl,2013-04-07 00:49:00,
2013-04-06 20:55:00,39.6,-99.9,30.08,East,95,0.0,0.0,-999,0.00,,,-99.99,perl,2013-04-07 00:55:00,
2013-04-06 21:00:00,39.7,-99.9,30.08,ESE,105,0.0,0.0,-999,0.00,,,-99.99,perl,2013-04-07 01:00:00,
2013-04-06 21:06:00,40.3,-99.9,30.08,ESE,114,2.7,3.6,-999,0.00,,,-99.99,perl,2013-04-07 01:06:00,
2013-04-06 21:11:00,40.6,-99.9,30.08,East,100,2.0,0.0,-999,0.00,,,-99.99,perl,2013-04-07 01:11:00,
2013-04-06 21:16:00,41.2,-99.9,30.08,East,100,3.6,4.0,-999,0.00,,,-99.99,perl,2013-04-07 01:16:00,
2013-04-06 21:21:00,41.7,-99.9,30.08,ESE,103,3.3,7.6,-999,0.00,,,-99.99,perl,2013-04-07 01:21:00,
2013-04-06 21:26:00,42.1,-99.9,30.08,East,100,3.1,5.8,-999,0.00,,,-99.99,perl,2013-04-07 01:26:00,
2013-04-06 21:32:00,42.3,-99.9,30.08,ESE,105,3.5,3.6,-999,0.00,,,-99.99,perl,2013-04-07 01:32:00,
2013-04-06 21:38:00,42.4,-99.9,30.08,ESE,116,2.6,3.6,-999,0.00,,,-99.99,perl,2013-04-07 01:38:00,
2013-04-06 21:43:00,42.6,-99.9,30.08,ESE,109,3.6,5.8,-999,0.00,,,-99.99,perl,2013-04-07 01:43:00,
2013-04-06 21:48:00,42.6,-99.9,30.08,East,98,2.7,4.0,-999,0.00,,,-99.99,perl,2013-04-07 01:48:00,
2013-04-06 21:53:00,42.8,-99.9,30.08,ESE,104,3.6,5.8,-999,0.00,,,-99.99,perl,2013-04-07 01:53:00,
2013-04-06 21:58:00,42.8,-99.9,30.08,East,99,3.6,4.0,-999,0.00,,,-99.99,perl,2013-04-07 01:58:00,
2013-04-06 22:03:00,42.6,-99.9,30.08,SE,136,2.1,4.0,-999,0.00,,,-99.99,perl,2013-04-07 02:03:00,
2013-04-06 22:10:00,42.6,-99.9,30.08,ESE,116,3.5,4.9,-999,0.00,,,-99.99,perl,2013-04-07 02:10:00,
2013-04-06 22:15:00,42.6,-99.9,30.06,ESE,108,2.7,4.9,-999,0.00,,,-99.99,perl,2013-04-07 02:15:00,
2013-04-06 22:21:00,42.8,-99.9,30.06,ESE,114,4.8,6.3,-999,0.00,,,-99.99,perl,2013-04-07 02:21:00,
2013-04-06 22:26:00,42.8,-99.9,30.06,SE,132,0.0,4.9,-999,0.00,,,-99.99,perl,2013-04-07 02:26:00,
2013-04-06 22:31:00,42.8,-99.9,30.06,ESE,109,3.4,3.6,-999,0.00,,,-99.99,perl,2013-04-07 02:31:00,
2013-04-06 22:36:00,42.8,-99.9,30.06,SE,130,0.0,0.0,-999,0.00,,,-99.99,perl,2013-04-07 02:36:00,
2013-04-06 22:41:00,42.8,-99.9,30.06,ESE,120,2.3,3.6,-999,0.00,,,-99.99,perl,2013-04-07 02:41:00,
2013-04-06 22:46:00,42.8,-99.9,30.06,ESE,107,0.0,0.0,-999,0.00,,,-99.99,perl,2013-04-07 02:46:00,
2013-04-06 22:51:00,42.8,-99.9,30.06,ESE,107,3.1,4.0,-999,0.00,,,-99.99,perl,2013-04-07 02:51:00,
2013-04-06 22:56:00,43.0,-99.9,30.06,ESE,112,2.7,5.8,-999,0.00,,,-99.99,perl,2013-04-07 02:56:00,
2013-04-06 23:02:00,43.0,-99.9,30.03,ESE,102,0.0,2.2,-999,0.00,,,-99.99,perl,2013-04-07 03:02:00,
2013-04-06 23:07:00,43.2,-99.9,30.03,ESE,103,0.0,0.0,-999,0.00,,,-99.99,perl,2013-04-07 03:07:00,
2013-04-06 23:13:00,43.2,-99.9,30.03,ESE,121,0.0,3.1,-999,0.00,,,-99.99,perl,2013-04-07 03:13:00,
2013-04-06 23:18:00,43.2,-99.9,30.03,ESE,116,3.1,4.9,-999,0.00,,,-99.99,perl,2013-04-07 03:18:00,
2013-04-06 23:23:00,43.3,-99.9,30.03,ESE,102,3.0,3.6,-999,0.00,,,-99.99,perl,2013-04-07 03:23:00,
2013-04-06 23:28:00,43.2,-99.9,30.03,ESE,112,2.2,3.1,-999,0.00,,,-99.99,perl,2013-04-07 03:28:00,
2013-04-06 23:33:00,43.2,-99.9,30.03,ESE,102,2.7,4.0,-999,0.00,,,-99.99,perl,2013-04-07 03:33:00,
2013-04-06 23:38:00,43.3,-99.9,30.03,SE,125,1.7,2.7,-999,0.00,,,-99.99,perl,2013-04-07 03:38:00,
2013-04-06 23:43:00,43.2,-99.9,30.03,SSE,149,2.2,4.0,-999,0.00,,,-99.99,perl,2013-04-07 03:43:00,
2013-04-06 23:49:00,43.3,-99.9,30.03,ESE,103,2.7,4.0,-999,0.00,,,-99.99,perl,2013-04-07 03:49:00,
2013-04-06 23:54:00,43.3,-99.9,30.03,ESE,103,0.0,0.0,-999,0.00,,,-99.99,perl,2013-04-07 03:54:00,